User: anonymous   Login
Location: Unspecified
(0.0000°N, 0.0000°E)
Time: 01:01:12
(UTC+00:00)
Language:

STARLINK-5171 - Orbit

View from above orbital plane
View from above orbital plane
View from above satellite
View from above satellite

Ground track
Ground track

The orbit is defined by the following mean orbital elements,

1 54077U          26145.23773584 +.00000000 +00000-0 +40871-3 0 00006
2 54077  53.2108 336.1182 0001950  91.1201 269.0014 15.08802135    02
Epoch (UTC): 25 May 2026 05:42:20
Eccentricity: 0.0001950
inclination: 53.2108°
perigee height: 539 km
apogee height: 541 km
right ascension of ascending node: 336.1182°
argument of perigee: 91.1201°
revolutions per day: 15.08802135
mean anomaly at epoch: 269.0014°

The dashed part of the orbit path shows where the satellite is in the earth's shadow,  

DLR